STARLINK-6162, 57131

Orbit data source: Space-Track

STARLINK-6162, 57131 is a payload satellite owned by SpaceX/Seattle (US) in LEO that was launched on Fri, 23 Jun 2023 UTC via an FALCON 9 launch vehicle from the Air Force Eastern Test Range (AFETR). Payload-class satellites include a variety of spacecraft equipped with specific instruments for various scientific and technological missions. These include communications satellites like Starlink; space stations such as the ISS; scientific satellites like the Hubble; Earth observation satellites from companies like Planet Labs, Umbra, and HawkEye 360; GPS; miniature CubeSats for education and research; and military/defense satellites.

Loading next visibility...
Identifier
57131, 2023-090AG
Orbit
LEO
Country
Flag of USUS
Related business
Manufacturer
SpaceX/Seattle
Mission
Operational Commercial Communications
Bus & Motor
STARLINK, Unknown motor
Mass
305 kg wet, ~290 kg dry
Launch date (UTC)
2023-06-23 (3 years ago)
Launch vehicle
FALCON 9
Launch site
Air Force Eastern Test Range (AFETR)
Object type
Payload
Rocket body
Debris
Shape & HBR
Box + 1 Pan, 10.1 m
Radar Cross Section
11.087 m², Large (>1 m²)

Expand to show TLE details & history
Last TLE update: 2 days ago

TLE from 2 days ago
0 STARLINK-6162
1 57131U 23090AG  26171.06545114  .00000298  00000-0  20370-4 0  9999
2 57131  43.0026  44.9058 0001329 252.2064 107.8643 15.27577489166018
Epoch: 2026-06-20T01:34Z
TLE epoch observation values (Epoch: 2026-06-20T01:34:14.978Z)
Latitude
Longitude
113.05797°
Altitude
483.112 km
Speed
7.626 km/s
True Right ascension
02h 59m 37s
True Declination
0° 00' 00"
Sunlit
Object was in daylight at epoch
Visualization orbit readout
Latitude
Unknown
Longitude
Unknown
Altitude
Unknown
Speed
Unknown
Apparent Right ascension
Unknown
Apparent Declination
Unknown
Sunlit
N/A
Visualization observer readout
Local Sidereal Time
21:47:54
Azimuth
Unknown
Elevation
Unknown
Doppler factor
Unknown
Orbital elements
Apogee altitude
485.913 km
Perigee altitude
484.089 km
Semi-major axis
6,863.138 km
Eccentricity
0.00013
Inclination
43.0026°
RAAN
44.9058°
Arg. of periapsis
252.2064°
True anomaly
107.87879°
Mean anomaly
107.8643°
Eccentric anomaly
107.87155°
Mean motion
3.81732 °/min
Orbital period
94.31 mins
BSTAR
0.00002037
Loading maneuver chart data...
Computing Atmospheric mass density...

Documentation

Showing up to 5 results
|